Tracking 19212 objects as of 17-Jul-2018
HD Live streaming from Space Station
objects crossing your sky now

FENGYUN 1C DEB

Track FENGYUN 1C DEB now!
10-day predictions


NORAD ID: 31851
Int'l Code: 1999-025CJR
Perigee: 840.9 km
Apogee: 1,167.5 km
Inclination: 98.8 °
Period: 105.1 minutes
Semi major axis: 7375 km
RCS: 0.0112 m2 (small)
Launch date: May 10, 1999
Source: People's Republic of China (PRC)
Launch site: Taiyaun Space Center, China (TSC)

Note: This is SATELLITE DEBRIS
aabbcc
Your satellite tracking list
Your tracking list is empty




NASA's NSSDC Master Catalog

Two Line Element Set (TLE):
1 31851U 99025CJR 18184.30795696  .00000332  00000-0  35261-3 0  9998
2 31851  98.7926 210.0823 0221399 330.7049  28.1833 13.70695289552949
Source of the keplerian elements: AFSPC